Regional Weather Roundup
Issued by NWS

Home | Current Version | Previous Version | Text Only | Print | Product List | Glossary Off
Versions: 1 2 3 4 5 6 7 8 9 10 11 12 13 14 15 16 17 18 19 20 21 22 23 24 25 26 27 28 29 30 31 32 33 34 35 36 37 38 39 40 41 42 43 44 45 46 47 48 49 50

425
ASUS43 KMPX 211110
RWRMN
WEATHER ROUNDUP FOR MINNESOTA
NATIONAL WEATHER SERVICE TWIN CITIES/CHANHASSEN MN
500 AM CST WED FEB 21 2018


NOTE: "FAIR" INDICATES FEW OR NO CLOUDS BELOW 12,000 FEET WITH NO
SIGNIFICANT WEATHER AND/OR OBSTRUCTIONS TO VISIBILITY. N/A MEANS
CURRENT SKY AND/OR WEATHER CONDITIONS ARE NOT AVAILABLE.

MNZ060>063-068>070-211200-
   Twin Cities Metro

CITY           SKY/WX    TMP DP  RH WIND       PRES   REMARKS
TWIN CITIES    FAIR       4   0  83 W6        30.50R WCI  -7
ST PAUL        FAIR       5  -1  76 W3        30.51R
CRYSTAL        FAIR       3  -3  76 W6        30.48R WCI  -8
BLAINE         FAIR       5   0  78 SW5       30.47R WCI  -4
LAKEVILLE      FAIR       0  -2  92 CALM      30.50R
EDEN PRAIRIE   FAIR       1  -4  79 W6        30.49R WCI -10
SOUTH ST PAUL  FAIR       5  -1  77 W8        30.50R WCI  -9
LAKE ELMO      FAIR       5   1  85 W6        30.49R WCI  -6
$$
MNZ001>005-007-008-013>017-022>024-027-028-211200-
   Northwest Minnesota

CITY           SKY/WX    TMP DP  RH WIND       PRES   REMARKS
BEMIDJI        FAIR      -5  -9  84 SW7       30.30R WCI -19
HALLOCK        FAIR      -6  -9  84 SW13      30.29R WCI -25
ROSEAU         FAIR       0  -8  71 SW13      30.25R WCI -18
WARROAD        FAIR      -2  -8  78 SW12      30.24R WCI -20
THIEF RVR FALL FAIR      -4  -9  79 SW14      30.31R WCI -24
CROOKSTON      FAIR      -9 -15  77 S7        30.36R WCI -24
FOSSTON        FAIR     -11 -17  77 S10       30.32R WCI -30
DETROIT LAKES  FAIR      -6  -9  84 SW5       30.37R WCI -17
MOORHEAD       FAIR      -6 -11  77 S6        30.41R WCI -18
PARK RAPIDS    FAIR      -9 -15  75 SW8       30.33R WCI -25
MAHNOMEN       FAIR     -10 -14  80 S9        30.35R WCI -27
$$
MNZ006-009>011-018-025>026-211200-
   North Central Minnesota

CITY           SKY/WX    TMP DP  RH WIND       PRES   REMARKS
BAUDETTE       FAIR      -4  -8  83 SW7       30.23R WCI -18
FLAG ISLAND    FAIR      -2  -8  78 SW14      30.20R WCI -21
INTL FALLS     FAIR     -10 -15  78 SW5       30.26R WCI -22
WASKISH        FAIR      -2  -6  84 SW7       30.28R WCI -16
BIG FORK       FAIR      -9 -15  77 S5        30.28R WCI -21
LONGVILLE      FAIR     -17 -20  83 CALM      30.34R
GRAND RAPIDS   FAIR      -1  -5  82 SW6       30.34R WCI -13
CRANE LAKE     FAIR     -13 -17  84 CALM      30.31R
ORR            FAIR      -6  -9  84 CALM      30.25R
COOK             N/A     -6  -9  84 SW5       30.29R WCI -17
WALKER         FAIR      -2  -7  79 SW10      30.32R WCI -19
$$
MNZ012-019>021-037-211200-
   Northeast Minnesota

CITY           SKY/WX    TMP DP  RH WIND       PRES   REMARKS
DULUTH         FAIR      -4  -9  79 W12       30.32R WCI -22
ELY            FAIR      -2  -8  78 SW5       30.28R WCI -12
HIBBING        FAIR     -17 -22  78 CALM      30.31R
EVELETH        FLURRIES N/A N/A N/A SW3       30.32R
DULUTH HARBOR  FAIR       1  -4  78 SW9       30.42R WCI -14
TWO HARBORS    FAIR       1  -4  78 W6        30.32R WCI -10
GRAND MARAIS     N/A     -2  -7  79 W5        30.34R WCI -12
G MARAIS ARPRT FAIR      -2  -8  78 CALM      30.21R
$$
MNZ029>031-032-039>041-046>048-054>057-064-211200-
   West Central Minnesota

CITY           SKY/WX    TMP DP  RH WIND       PRES   REMARKS
FERGUS FALLS   FAIR      -9 -15  77 SW6       30.44R WCI -23
WHEATON        CLOUDY    -4 -11  71 SW6       30.47R WCI -16
MORRIS         CLOUDY    -6 -11  77 SW8       30.44R WCI -21
ALEXANDRIA     FAIR      -3  -8  79 SW7       30.40R WCI -16
ELBOW LAKE     FAIR      -9 -13  82 W5        30.43R WCI -20
WADENA         FAIR      -8 -11  84 SW8       30.38R WCI -23
GLENWOOD       FAIR      -8 -11  84 SW5       30.43R WCI -19
APPLETON       CLOUDY    -2  -9  71 SW6       30.48R WCI -14
BENSON         CLOUDY    -4  -9  77 W9        30.48R WCI -20
ORTONVILLE     CLOUDY    -4 -11  71 SW7       30.47R WCI -18
MADISON        CLOUDY    -2  -9  71 SW8       30.49S WCI -17
WILLMAR        FAIR      -6  -9  84 W6        30.49R WCI -18
$$
MNZ033>034-036-042>043-049>051-058-059-211200-
   Central Minnesota

CITY           SKY/WX    TMP DP  RH WIND       PRES   REMARKS
ST CLOUD       FAIR      -6  -9  86 W8        30.45R WCI -21
SAUK CENTRE    FAIR      -3  -8  79 W8        30.43R WCI -18
PAYNESVILLE    FAIR      -7 -10  86 SW7       30.46R WCI -21
AITKIN         FAIR      -2  -8  78 SW5       30.37R WCI -12
PINE RIVER     FAIR     -11 -17  77 CALM      30.39R
BRAINERD       FAIR      -2  -8  76 SW6       30.39R WCI -14
STAPLES        FAIR      -6  -9  84 SW6       30.38R WCI -18
LONG PRAIRIE   FAIR      -8  -9  92 S6        30.41R WCI -21
LITTLE FALLS   FAIR      -6 -15  65 CALM      30.44R
LITCHFIELD     FAIR       0  -6  78 SW3       30.47R
BUFFALO        FAIR      -1  -5  82 CALM      30.49R
MAPLE LAKE     FAIR      -1  -4  85 W6        30.48R WCI -12
HUTCHINSON     FAIR      -3  -7  81 SW6       30.49R WCI -15
$$
MNZ037-044-045-052-053-211200-
   East Central Minnesota

CITY           SKY/WX    TMP DP  RH WIND       PRES   REMARKS
PRINCETON      FAIR       0  -6  78 CALM      30.45R
MORA           FAIR       0  -6  78 SW3       30.45R
CAMBRIDGE        N/A      0  -8  71 CALM      30.47R
RUSH CITY      MOCLDY     0  -4  85 SW3       30.46R
MOOSE LAKE     FAIR      -6  -9  84 SW3       30.38R
HINCKLEY       FAIR      -4  -8  84 SW3       30.43R
CLOQUET        FAIR       0  -6  78 W8        30.35R WCI -15
MCGREGOR       FAIR       0  -4  85 SW6       30.38R WCI -12
$$
MNZ071>073-080-081-089-090-097-098-211200-
   Southwest Minnesota

CITY           SKY/WX    TMP DP  RH WIND       PRES   REMARKS
MONTEVIDEO     CLOUDY    -2  -8  78 NW5       30.49R WCI -12
GRANITE FALLS  CLOUDY    -3  -8  79 SW9       30.52R WCI -20
CANBY          CLOUDY     1  -6  70 SW5       30.50R WCI  -8
MARSHALL       CLOUDY    -3  -9  75 W3        30.50R
REDWOOD FALLS  PTCLDY     0  -6  76 W8        30.50R WCI -14
OLIVIA         PTCLDY    -2  -8  78 W6        30.49R WCI -14
PIPESTONE      CLOUDY    -8 -11  84 W3        30.46R
WORTHINGTON    CLOUDY    -2  -6  83 W6        30.49R WCI -14
JACKSON        CLOUDY     1  -4  78 W6        30.49R WCI -10
TRACY          PTCLDY    -1  -6  79 SW8       30.48R WCI -15
SLAYTON        CLOUDY    -1  -7  75 W9        30.47R WCI -16
$$
MNZ065>067-074>077-082>085-091>093-211200-
   South Central Minnesota

CITY           SKY/WX    TMP DP  RH WIND       PRES   REMARKS
MANKATO        FAIR       3  -2  79 W7        30.52R WCI  -9
NEW ULM        CLEAR     -2  -8  78 W5        30.51R WCI -12
ST JAMES       CLOUDY     1  -4  78 SW6       30.53R WCI -10
FAIRMONT       CLEAR      1  -3  83 W9        30.53R WCI -14
GLENCOE        FAIR       1  -3  81 SW5       30.49R WCI  -8
FARIBAULT      FAIR       1  -2  85 CALM      30.49R
OWATONNA       FAIR       0  -4  85 CALM      30.48R
WASECA         FAIR       3  -2  78 W5        30.51R WCI  -6
ALBERT LEA     FAIR       7   0  72 W3        30.49R
$$
MNZ078>079-086>088-094>096-211200-
   Southeast Minnesota

CITY           SKY/WX    TMP DP  RH WIND       PRES   REMARKS
ROCHESTER      FAIR       5   2  87 W9        30.46R WCI  -9
RED WING       FAIR       1  -4  78 CALM      30.50R
STANTON        FAIR       4  -1  78 W3        30.49R
DODGE CENTER   FAIR       3   0  85 W5        30.46R WCI  -6
WINONA         FAIR      10   5  79 NW6       30.50R WCI   1
AUSTIN         FAIR       5   1  85 NW3       30.48R
PRESTON        FAIR       6   1  81 NW6       30.47R WCI  -5
$$
ABBREVIATIONS USED IN REMARKS
   TC - TEMPERATURES IN CELSIUS
  WCI - WIND CHILL INDEX
   HX - HEAT INDEX
  VSB - VISIBILITY
$$




USA.gov is the U.S. government's official web portal to all federal, state and local government web resources and services.